Location: Forst
(46.9333°N, 15.4333°E)
Time: 10:45:21
(UTC+00:00)

X-37B - Visible Passes

Search period start: 28 September 2021 00:00
Search period end: 08 October 2021 00:00
Orbit: 381 x 393 km, 45.0° (Epoch: 29 August)

Date Brightness Start Highest point End Pass type
(mag) Time Alt. Az. Time Alt. Az. Time Alt. Az.
28 Sep 3.0 02:25:37 20° E 02:25:37 20° E 02:26:50 10° E visible
28 Sep 0.8 03:57:54 16° W 04:00:14 58° S 04:03:22 10° ESE visible
29 Sep 0.9 03:02:12 57° SSE 03:02:12 57° SSE 03:05:02 10° E visible
30 Sep 3.9 02:06:32 11° E 02:06:32 11° E 02:06:41 10° E visible
30 Sep 1.0 03:38:49 29° WSW 03:40:02 48° SSW 03:43:07 10° ESE visible
01 Oct 2.5 02:43:12 27° ESE 02:43:12 27° ESE 02:44:49 10° ESE visible
01 Oct 1.9 04:15:30 11° W 04:18:03 26° SSW 04:20:45 10° SE visible
02 Oct 1.4 03:19:58 36° S 03:19:58 36° S 03:22:45 10° SE visible
03 Oct 3.8 02:24:30 10° ESE 02:24:30 10° ESE 02:24:34 10° ESE visible
03 Oct 2.4 03:56:49 16° SW 03:57:43 17° SSW 03:59:53 10° SSE visible
04 Oct 3.1 03:01:28 15° SSE 03:01:28 15° SSE 03:02:12 10° SE visible
